Location: Cardiff
(53.7833°N, 113.6000°W)
Time: 19:58:33
(UTC+00:00)

RS-15 - Pass Details

Date: 03 December 2023
Orbit: 1893 x 2151 km, 64.8° (Epoch: 24 February)

Event Time Altitude Azimuth Distance (km) Brightness Sun altitude
Rises 03:17:21 0° 179° (S) 5,653 10.4 -34.3°
Reaches altitude 10° 03:21:08 10° 172° (S) 4,641 9.8 -34.8°
Enters shadow 03:23:06 16° 167° (SSE) 4,153 9.5 -35.1°
